This demonstration page uses our WeatherBlox Daily Observations layout. Learn more.

38.88101, -77.10428

Hourly Observations for August 2, 2018

Temp ( °F °C ) Dew Point ( °F °C ) Humidity (%) Winds ( mph kmh ) Pressure ( in mb ) Visibility ( mi km ) Precip ( " mm )
12:52 am 00:52 Mostly Cloudy 78 25.6 73 22.8 85 85 NNE 3 6 30.07 1018 9 14.48406 0 0
1:09 am 01:09 Mostly Cloudy 78 25.6 73 22.8 85 85 N 3 6 30.09 1019 9 14.48406 0 0
1:52 am 01:52 Cloudy with Haze 78 25.6 73 22.8 85 85 NNW 6 9 30.07 1018 6 9.65604 0 0
2:18 am 02:18 Mostly Cloudy 78 25.6 72 22.2 82 82 Calm 30.06 1018 7 11.26538 0 0
2:38 am 02:38 Mostly Cloudy 77 25 72 22.2 85 85 SE 5 7 30.06 1018 10 16.0934 0 0
2:52 am 02:52 Mostly Cloudy 78 25.6 73 22.8 85 85 S 7 11 30.06 1018 10 16.0934 0 0
3:52 am 03:52 Mostly Cloudy 77 25 70 21.1 79 79 SSW 8 13 30.08 1019 10 16.0934 0 0
4:52 am 04:52 Partly Cloudy 76 24.4 70 21.1 82 82 S 7 11 30.08 1019 9 14.48406 0 0
5:52 am 05:52 Mostly Cloudy 76 24.4 69 20.6 79 79 SW 8 13 30.09 1019 9 14.48406 0 0
6:52 am 06:52 Cloudy 76 24.4 69 20.6 79 79 SSW 8 13 30.11 1020 10 16.0934 0 0
6:56 am 06:56 Cloudy 76 24.4 69 20.6 79 79 SSW 7 11 30.12 1020 7 11.26538 0 0
7:23 am 07:23 Cloudy 76 24.4 69 20.6 79 79 SSW 9 15 30.12 1020 10 16.0934 0 0
7:44 am 07:44 Cloudy 76 24.4 69 20.6 79 79 SSW 10 17 30.12 1020 10 16.0934 0 0
7:52 am 07:52 Cloudy 77 25 70 21.1 79 79 S 8 13 30.12 1020 10 16.0934 0 0
8:52 am 08:52 Cloudy 77 25 70 21.1 79 79 S 8 13 30.12 1020 10 16.0934 0 0
9:52 am 09:52 Cloudy 77 25 71 21.7 82 82 S 10 17 30.13 1020 9 14.48406 0 0
10:52 am 10:52 Cloudy 79 26.1 71 21.7 77 77 SW 10 17 30.14 1021 10 16.0934 0 0
11:49 am 11:49 Cloudy 81 27 72 22 74 74 SW 7 11 30.15 1021 10 16.0934 0 0
11:52 am 11:52 Cloudy 81 27.2 72 22.2 74 74 SW 9 15 30.14 1021 10 16.0934 0 0
12:52 pm 12:52 Mostly Cloudy with Light Rain 82 27.8 73 22.8 74 74 SSE 5 7 30.11 1020 10 16.0934 0 0.0254
1:52 pm 13:52 Mostly Cloudy 85 29.4 73 22.8 68 68 E 3 6 30.09 1019 10 16.0934 0 0.0254
2:17 pm 14:17 Cloudy with Thunderstorms 86 30 72 22.2 63 63 Calm 30.09 1019 10 16.0934 0 0.0254
2:45 pm 14:45 Cloudy with Heavy Thunderstorms 79 26.1 73 22.8 82 82 SSE 7 11 30.09 1019 3 4.82802 0.04 1.016
2:52 pm 14:52 Cloudy with Thunderstorms 78 25.6 73 22.8 85 85 Calm 30.1 1019 2.5 4.02335 0.09 2.286
2:55 pm 14:55 Cloudy with Thunderstorms 78 25.6 73 22.8 85 85 VRB 3 6 30.12 1020 1.25 2.011675 0.01 0.254
3:01 pm 15:01 Cloudy with Heavy Thunderstorms 77 25 73 22.8 88 88 W 5 7 30.09 1019 0.5 0.80467 0.12 3.048
3:08 pm 15:08 Cloudy with Heavy Thunderstorms 76 24.4 73 22.8 91 91 WSW 12 19 30.12 1020 0.75 1.207005 0.43 10.922
3:18 pm 15:18 Cloudy with Heavy Thunderstorms 75 23.9 73 22.8 94 94 SW 6 9 30.12 1020 1.5 2.41401 0.76 19.304
3:22 pm 15:22 Cloudy with Thunderstorms 75 23.9 73 22.8 94 94 Calm 30.09 1019 6 9.65604 0.78 19.812
3:31 pm 15:31 Cloudy with Light Thunderstorms 76 24.4 73 22.8 91 91 E 3 6 30.09 1019 8 12.87472 0.8 20.32
3:43 pm 15:43 Cloudy with Light Thunderstorms 76 24.4 73 22.8 91 91 ENE 3 6 30.09 1019 8 12.87472 0.8 20.32
3:52 pm 15:52 Cloudy with Thunderstorms 76 24.4 73 22.8 91 91 NNE 8 13 30.09 1019 9 14.48406 0.8 20.32
3:59 pm 15:59 Cloudy with Light Thunderstorms 76 24.4 73 22.8 91 91 ENE 7 11 30.09 1019 9 14.48406 0 0.0254
4:09 pm 16:09 Cloudy with Thunderstorms 76 24.4 72 22.2 88 88 E 5 7 30.09 1019 10 16.0934 0 0.0254
4:16 pm 16:16 Cloudy with Thunderstorms 75 23.9 72 22.2 90 90 Calm 30.09 1019 10 16.0934 0 0.0254
4:31 pm 16:31 Cloudy with Heavy Rain 75 23.9 72 22.2 90 90 SE 9 15 30.09 1019 10 16.0934 0.1 2.54
4:43 pm 16:43 Cloudy with Light Thunderstorms 75 23.9 72 22.2 90 90 SE 7 11 30.09 1019 4 6.43736 0.14 3.556
4:52 pm 16:52 Cloudy with Light Thunderstorms 75 23.9 72 22.2 90 90 ESE 3 6 30.1 1019 8 12.87472 0.14 3.556
4:58 pm 16:58 Cloudy 75 23.9 72 22.2 90 90 Calm 30.09 1019 10 16.0934 0 0.0254
5:52 pm 17:52 Cloudy 77 25 72 22.2 85 85 ESE 3 6 30.09 1019 10 16.0934 0 0.0254
6:32 pm 18:32 Cloudy 78 25.6 73 22.8 85 85 SSE 7 11 30.09 1019 10 16.0934 0 0
6:52 pm 18:52 Mostly Cloudy 78 25.6 73 22.8 85 85 S 6 9 30.09 1019 10 16.0934 0 0
7:52 pm 19:52 Cloudy 77 25 73 22.8 88 88 SW 3 6 30.09 1019 10 16.0934 0 0
8:52 pm 20:52 Cloudy 78 25.6 73 22.8 85 85 S 6 9 30.1 1019 10 16.0934 0 0.0254
9:52 pm 21:52 Mostly Cloudy 77 25 73 22.8 88 88 S 7 11 30.1 1019 10 16.0934 0 0
10:52 pm 22:52 Mostly Cloudy 76 24.4 72 22.2 88 88 S 10 17 30.11 1020 10 16.0934 0 0
11:52 pm 23:52 Mostly Cloudy 76 24.4 71 21.7 85 85 SSW 10 17 30.11 1020 10 16.0934 0 0

Powered by AerisWeather